Regional Weather Roundup
Issued by NWS Newport/Morehead, NC

Current Version | Previous Version | Graphics & Text | Print | Product List | Glossary Off
Versions: 1 2 3 4 5 6 7 8 9 10 11 12 13 14 15 16 17 18 19 20 21 22 23 24 25 26 27 28 29 30 31 32 33 34 35 36 37 38 39 40 41 42 43 44 45 46 47 48 49 50

000
ASUS42 KMHX 211122
RWRMHX
WEATHER ROUNDUP FOR EASTERN NORTH CAROLINA
NATIONAL WEATHER SERVICE NEWPORT/MOREHEAD CITY NC
700 AM EDT SUN SEP 21 2014

NOTE: "FAIR" INDICATES FEW OR NO CLOUDS BELOW 12,000 FEET
WITH NO SIGNIFICANT WEATHER AND/OR OBSTRUCTIONS TO VISIBILITY

NCZ015>017-031-032-045>047-102-103-211200-
NORTH COAST

CITY           SKY/WX    TMP DP  RH WIND       PRES   REMARKS
EDENTON        RAIN      70  69  96 N7        29.80S
ELIZABETH CITY LGT RAIN  70  69  97 N14       29.79F
KITTY HAWK     DRIZZLE   71  70  97 N7        29.75F
MANTEO         CLOUDY    71  70  97 N12       29.76S

$$

NCZ045>047-081-094-103-104-211200-
CENTRAL COAST

CITY           SKY/WX    TMP DP  RH WIND       PRES   REMARKS
FRISCO         CLOUDY    70  70 100 NE9G17    29.71S
SWANQUARTER      N/A     72 N/A N/A N9G15     29.74R

$$

NCZ095-097-098-100-101-211200-
SOUTHERN COAST

CITY           SKY/WX    TMP DP  RH WIND       PRES   REMARKS
BEAUFORT       CLOUDY    73  70  90 N15       29.74R
CEDAR ISLAND     N/A     72 N/A N/A N25       29.77S
JACKSONVILLE   CLOUDY    70  68  93 NW13      29.78R
NEWPORT        NOT AVBL
PINEY ISLAND   CLOUDY    75  70  84 N16       29.74R
WILMINGTON     CLOUDY    69  68  96 NW13      29.81R


$$

NCZ011>013-027>030-043-044-078>080-089-090>093-098-211200-
COASTAL PLAIN

CITY           SKY/WX    TMP DP  RH WIND       PRES   REMARKS
AHOSKIE        CLOUDY    66  65  94 N7        29.85S
CLINTON        CLOUDY    68  66  94 NW5       29.86R
ELIZABETHTOWN  LGT RAIN  68  66  94 NW6       29.86R
GOLDSBORO      CLOUDY    69  68  98 NW1       29.82S
GREENVILLE     CLOUDY    68  68 100 N8        29.84F
HAVELOCK       CLOUDY    72  70  93 N17       29.77R
KENANSVILLE    CLOUDY    68  66  94 N7        29.85R
KINSTON        CLOUDY    68  68 100 N9        29.83R FOG
NEW BERN       CLOUDY    72  68  87 N12       29.79R
RICHLANDS      CLOUDY    70  64  83 NW7       29.82R
ROANOKE RAPIDS NOT AVBL
ROCKY MOUNT    MOCLDY    66  63  90 N9        29.85S
WASHINGTON     CLOUDY    68  67  96 N10       29.81R
WHITEVILLE     CLOUDY    67  65  94 CALM      29.86R

$$

AMZ130-135-150-152-154-156-158-170-250-252-270-ANZ085-086-088-633-658-670-211200-
MARINE OBSERVATIONS

STATION/POSITION TIME  TEMP    WIND        PRES    WAVE   SWELL
                       AIR SEA DIR/SP/G            HT/PER HT/PER
                 (UTC) (F)     (DEG/KT/KT) (MB)    (FT/S) (FT/S)
CHESAPEAKE LIGHT 1100   71      20/ 16/ 17 1010.2
BUOY 44014       1100   72 70   70/  6/  8 1007.8    8/ 9   8/ 9
DUCK             1100   72 74  360/ 16/ 18 1007.4
2E DUCK          1100                        N/A     5/ 8   2/11
OREGON INLET     1100   72 74   10/ 15/ 19 1006.7
BUOY 44095       1100      74                N/A     8/ 9   2/11
20E OREGON INLET NOT AVBL
HATTERAS CG      1100   73 74   10/ 17/ 18 1006.4
DIAMOND BUOY     1100   73     320/ 12/ 16 1005.1    8/ 8   7/ 8
CAPE LOOKOUT     1100   72     360/ 20/ 25 1006.3
BEAUFORT LAB     1100   72 74  360/ 17/ 22 1006.5
30 SE NEW RIVER  1100   75 83  350/ 25/ 31 1006.1    8/ 8   3/10
5 SE WRIGHTSVILL 1100   69 79  340/ 23/ 27   N/A
BUOY 41002       1004   79 82  210/ 23/ 27 1008.4   11/ 7
BUOY 41004       1100   75 81  320/ 17/ 21 1011.0    6/ 7   3/ 9

$$



USA.gov is the U.S. government's official web portal to all federal, state and local government web resources and services.